GFSSW_850_spd_258.txt.gz
Wind_Speed
10 10 10 10 9 9 9 9 10 10 10 9 8 8 7 6 7 7 5 4 5 10 11 13 12 6 7 6 5 5 4 1 1 1 3 8 4 11 1 13 1 1 22 23 26
10 10 9 9 9 8 9 9 9 10 9 8 8 6 6 4 4 5 2 4 6 6 7 7 8 5 5 3 2 3 2 4 2 2 4 7 1 7 4 9 5 18 23 25 26
11 10 9 9 8 8 7 8 8 8 8 7 6 4 4 2 2 5 2 6 6 9 4 3 5 3 3 4 1 2 0 2 7 4 2 3 5 4 14 3 10 30 30 28 26
12 12 10 9 7 7 7 7 7 7 7 6 4 2 2 4 5 3 7 8 9 10 7 5 5 3 3 5 7 2 3 3 3 5 1 2 3 1 16 4 20 29 29 29 27
13 13 11 9 7 6 6 6 7 7 6 5 1 1 3 4 4 3 5 6 5 5 5 3 4 2 2 2 8 2 7 4 5 6 6 7 3 4 21 1 23 28 29 27 26
13 13 12 11 8 7 6 6 7 7 5 4 2 2 4 4 8 7 9 8 5 3 1 3 1 6 2 2 3 11 13 6 3 7 7 11 7 10 12 16 25 29 29 27 27
14 13 12 11 9 8 6 6 7 4 4 4 4 3 6 4 5 5 5 4 3 2 3 4 4 4 9 4 4 16 6 7 7 4 5 13 3 4 17 24 30 30 30 28 27
13 13 12 9 8 9 9 8 3 6 6 6 7 9 6 3 3 4 1 0 2 2 4 6 2 3 2 1 6 2 3 3 3 3 6 3 6 5 26 30 27 30 31 30 28
11 12 11 6 8 10 9 4 5 9 6 6 7 7 5 6 5 2 3 3 4 5 4 3 1 2 1 3 3 1 3 3 5 11 3 8 5 4 29 26 26 27 29 31 29
10 10 9 4 7 11 7 2 2 7 4 5 7 5 5 5 2 1 2 4 3 4 0 2 3 4 4 5 2 2 2 1 6 8 14 8 12 5 24 27 26 27 30 30 32
10 9 7 3 5 12 8 4 2 2 6 3 2 2 2 5 1 4 3 1 1 4 3 4 5 2 2 2 2 2 3 4 5 5 7 15 11 11 21 21 22 27 28 32 36
10 8 4 3 4 8 12 9 10 5 6 5 5 5 5 3 3 2 2 2 3 3 2 6 1 3 3 2 3 3 2 4 5 2 8 7 14 9 22 30 33 31 31 33 36
11 7 2 1 2 5 7 12 9 7 1 3 4 4 4 3 3 1 2 2 4 3 3 5 2 2 4 5 5 3 1 3 4 7 3 1 5 8 14 21 24 27 32 33 40
12 7 3 4 6 2 3 5 5 6 5 5 2 4 3 4 3 7 2 1 5 4 4 1 3 4 5 2 4 2 5 3 5 4 2 3 4 4 7 18 17 29 32 35 38
12 6 3 7 4 1 4 4 2 3 4 2 3 4 11 6 5 11 7 2 3 3 6 3 5 5 5 4 1 6 4 5 3 4 1 2 2 6 6 11 18 26 35 40 46
13 5 2 7 5 2 4 2 1 5 2 2 5 6 5 13 9 11 16 11 7 6 6 3 3 5 3 4 2 5 1 5 4 3 1 6 6 5 6 13 17 26 37 43 45
11 4 4 11 5 2 4 3 5 4 3 3 3 5 5 7 7 8 7 9 4 5 6 7 4 5 5 7 7 11 6 3 3 0 5 2 0 7 6 5 8 18 35 42 42
10 2 4 10 6 2 2 4 4 3 2 2 3 4 6 5 5 7 3 6 8 6 4 3 6 7 8 1 4 5 4 4 3 3 5 5 6 5 7 14 20 24 30 34 38
7 2 8 9 5 2 1 4 7 5 3 5 4 6 6 5 4 3 5 2 3 3 4 3 4 5 2 3 1 5 3 2 2 2 2 4 8 8 7 10 14 19 16 29 39
3 4 9 8 3 3 4 4 3 3 4 4 4 2 3 5 4 4 3 5 3 4 1 3 2 2 6 6 4 3 3 3 3 2 4 5 5 5 10 13 20 24 22 23 33
2 4 4 6 2 1 4 5 4 3 3 3 3 4 3 2 3 1 1 1 3 4 6 3 3 6 2 2 4 5 4 3 3 4 4 3 6 5 5 9 20 25 31 33 24
1 3 1 7 3 2 2 4 1 3 5 4 5 4 3 2 2 2 3 1 7 1 3 2 4 2 6 5 4 4 4 4 4 6 2 2 6 10 8 18 24 34 37 40 23
3 3 6 6 2 2 4 1 1 3 2 3 3 2 2 3 3 1 2 3 8 3 3 3 1 3 8 6 5 5 2 2 2 2 4 2 6 14 24 25 31 32 40 36 23
3 3 5 9 5 3 3 2 3 6 5 6 5 5 4 2 5 4 1 2 6 3 4 4 3 7 6 7 3 3 3 5 3 2 5 7 17 10 18 14 32 34 34 31 22
6 2 2 2 5 4 2 4 2 3 4 4 4 3 5 3 1 1 1 4 2 0 2 4 3 5 6 8 3 6 8 8 7 7 7 12 22 15 8 14 22 24 27 24 21
4 3 3 3 3 2 6 3 3 2 3 2 7 3 3 6 7 7 4 3 5 1 2 2 3 4 4 7 7 5 8 14 14 15 16 12 13 2 19 13 15 21 22 16 16
7 5 2 6 3 3 2 4 3 3 5 6 13 5 2 5 8 4 9 3 4 4 4 3 4 2 5 4 6 5 11 11 6 7 6 7 7 7 6 6 10 16 18 13 9

GFSSW_850_spd_261.txt.gz
Wind_Speed
9 9 8 8 8 8 8 8 8 8 8 8 8 7 5 4 4 3 4 5 5 10 11 9 6 5 2 4 4 2 2 3 3 3 5 5 5 4 3 14 3 1 11 15 22
9 9 9 8 7 7 7 7 7 7 7 7 6 6 4 3 0 3 5 5 6 4 7 5 3 3 3 3 3 2 2 3 2 4 4 2 8 6 6 10 4 12 15 22 22
10 10 9 7 6 6 6 7 6 6 5 5 5 4 3 4 7 4 5 8 10 5 4 3 2 4 4 2 2 1 3 7 4 8 5 3 8 4 14 6 7 21 24 23 22
11 10 9 7 6 5 6 6 6 5 4 4 3 2 4 6 5 5 7 12 14 9 7 2 1 2 1 2 1 2 5 3 4 5 3 7 4 5 12 2 9 23 24 23 21
12 11 10 9 7 5 5 6 6 5 4 3 1 2 6 7 5 6 8 10 11 10 5 2 3 2 5 2 3 1 3 4 5 7 6 1 6 3 13 5 20 22 22 21 19
12 11 11 9 7 6 5 6 6 5 3 2 2 4 8 7 10 9 10 10 8 7 4 5 1 5 2 3 2 4 3 5 4 2 2 2 3 7 10 15 22 22 22 19 19
11 11 10 7 7 7 7 8 7 3 3 3 4 8 10 6 8 10 10 8 6 5 5 4 1 3 3 4 7 6 2 2 7 1 1 4 3 5 14 19 24 22 20 19 17
11 10 9 6 7 9 8 5 4 5 5 6 8 11 6 7 7 6 6 5 3 5 4 4 3 2 4 7 2 2 2 4 4 1 2 1 1 6 17 22 23 24 21 19 19
10 9 7 4 7 10 6 3 6 7 7 7 8 9 5 6 7 5 6 4 2 1 2 2 3 2 3 3 3 2 3 5 3 5 1 3 1 3 17 19 22 23 23 21 20
10 9 6 3 6 10 3 3 3 6 5 8 8 7 5 3 4 5 3 2 1 5 4 2 3 2 1 0 3 4 3 2 4 2 4 7 12 3 14 18 21 24 23 24 23
11 8 5 2 4 9 2 3 1 2 7 4 4 5 4 2 2 4 1 2 3 5 4 3 2 4 4 3 2 2 1 6 5 3 3 10 16 11 16 19 20 23 24 25 25
11 7 2 2 3 7 8 7 6 1 2 6 5 6 6 3 5 3 1 2 3 5 3 3 4 3 0 1 1 3 1 2 4 2 4 10 14 12 17 25 27 27 27 27 25
12 6 2 2 1 2 6 11 7 5 2 3 5 6 5 6 6 5 2 4 5 4 4 5 5 0 3 3 2 2 4 2 4 7 4 7 5 3 6 18 22 25 26 27 29
14 6 2 4 4 1 3 4 4 5 3 5 4 5 3 2 5 9 3 2 3 5 4 5 2 0 3 4 3 4 2 7 9 7 4 4 5 4 6 13 20 26 28 30 31
15 7 3 10 4 2 1 2 1 2 3 2 3 5 10 8 1 10 8 7 5 4 3 4 8 8 7 4 3 2 11 8 8 7 4 6 5 1 2 8 16 24 31 33 33
15 6 5 7 7 2 1 2 1 1 3 1 4 4 6 12 6 7 6 12 5 5 11 4 1 6 4 2 2 8 3 1 2 4 10 11 8 8 6 7 6 16 23 29 33
13 6 6 9 6 3 1 5 2 2 1 2 4 5 8 7 8 8 9 10 4 2 4 2 5 2 4 1 1 10 3 3 4 7 12 4 6 9 4 2 5 14 15 23 30
11 4 6 11 6 2 2 2 2 2 2 3 4 7 5 4 5 5 3 6 11 4 2 0 4 4 6 4 4 5 3 2 4 4 4 1 6 2 1 8 13 17 16 18 17
6 2 7 12 8 2 3 2 4 4 5 7 4 3 3 2 3 3 6 3 4 5 2 1 1 2 1 4 2 2 2 3 4 0 5 5 6 9 2 10 23 24 24 24 23
1 7 9 10 6 1 2 3 2 3 5 2 3 2 3 2 2 2 2 2 1 5 2 2 4 2 4 1 3 3 2 4 3 3 5 4 5 7 9 17 20 26 33 32 30
3 6 7 9 2 1 2 3 3 2 2 2 4 4 3 3 2 2 3 2 1 2 3 2 2 2 3 1 5 1 3 1 1 3 4 5 4 2 9 14 19 27 29 31 34
3 3 4 8 1 2 3 3 1 4 4 5 5 5 4 3 3 3 4 2 0 2 2 2 1 3 3 4 4 2 4 3 2 4 3 4 8 11 11 20 22 29 31 35 33
2 4 4 7 2 2 1 2 3 3 3 3 3 1 2 4 3 4 4 4 3 2 4 5 1 2 3 4 3 3 3 3 1 2 10 7 5 5 27 30 38 34 34 32 34
1 2 4 4 5 2 2 2 4 5 5 6 5 3 4 3 3 5 5 4 3 1 5 3 3 8 7 3 0 7 7 5 6 6 12 17 25 19 18 18 26 31 34 32 31
4 3 2 2 4 5 1 0 4 3 4 3 3 3 5 3 3 3 2 2 2 1 2 1 6 7 10 10 11 13 13 13 15 18 15 18 25 22 19 16 22 25 27 28 28
4 2 3 3 2 2 4 2 1 3 3 3 5 7 4 4 2 4 5 3 2 3 3 0 4 2 6 10 13 16 13 14 17 19 22 23 30 22 20 14 18 21 23 25 23
7 6 2 3 2 1 2 1 2 3 3 1 11 6 4 2 5 4 4 4 1 3 5 3 3 3 4 2 5 10 19 20 17 15 15 17 20 15 12 14 14 22 22 24 25

GFSSW_850_spd_264.txt.gz
Wind_Speed
7 7 7 7 7 8 8 8 8 8 7 8 7 6 6 4 2 2 2 5 5 8 9 8 3 2 0 2 2 2 4 5 6 5 8 8 8 5 5 13 5 4 7 20 23
8 8 8 7 7 7 7 7 7 7 7 7 6 5 4 3 2 3 4 5 6 6 9 5 2 4 2 1 1 3 0 4 3 5 8 6 6 7 8 10 7 7 14 23 23
10 9 8 7 6 6 7 6 6 6 6 6 4 3 4 5 5 1 6 8 7 7 5 1 0 2 2 3 3 3 4 6 6 9 4 5 6 3 11 3 4 12 22 23 23
9 9 8 7 6 6 6 6 6 6 5 4 2 3 5 8 3 1 10 13 10 8 4 1 2 3 2 3 3 2 5 4 6 5 5 4 4 4 3 8 7 17 20 22 21
9 9 8 7 6 6 6 6 6 6 4 3 1 5 10 5 4 6 12 11 8 3 1 1 3 5 9 4 0 4 7 7 6 7 5 5 3 2 6 7 16 19 20 19 17
9 9 8 7 7 6 6 7 7 6 3 1 4 8 8 7 6 9 10 9 7 5 3 2 4 6 4 6 5 7 7 9 5 6 4 3 5 3 9 13 19 20 19 17 16
8 8 7 5 6 7 9 9 5 1 2 3 8 12 4 7 7 11 11 6 6 4 2 3 4 6 2 0 5 2 7 8 3 4 2 7 7 6 12 16 18 18 19 16 15
8 8 6 4 7 9 8 5 5 4 4 6 12 12 7 9 7 8 7 4 4 4 3 4 2 3 5 3 3 2 5 9 6 6 3 7 9 4 13 17 18 18 18 17 16
8 7 5 2 6 9 4 3 6 6 7 10 9 4 10 8 7 6 5 3 4 2 2 2 2 2 3 8 5 2 6 8 7 6 0 3 3 6 12 15 16 19 19 18 17
9 6 3 1 5 9 1 2 5 6 8 10 8 4 9 7 5 5 4 3 3 5 4 4 5 6 3 8 1 5 3 5 5 5 3 5 6 10 11 14 14 18 19 20 19
10 5 2 1 4 9 3 3 2 4 2 4 5 4 8 3 6 4 2 3 4 8 11 5 9 9 4 2 2 3 6 2 3 4 6 3 4 3 13 14 15 18 20 20 20
11 6 1 3 1 6 4 1 0 4 8 5 6 6 5 5 7 4 1 6 8 10 7 8 11 5 2 1 4 6 6 6 5 1 6 7 7 3 11 15 17 18 20 21 20
12 6 2 4 2 1 5 4 6 6 6 7 6 6 4 2 5 5 1 3 7 8 12 10 8 2 5 4 8 8 11 6 8 9 11 10 12 5 5 10 14 17 19 21 22
12 7 3 5 3 2 1 1 4 3 6 8 5 4 0 4 6 4 2 1 3 5 5 2 2 3 5 6 7 11 5 9 10 9 8 2 6 5 6 9 13 18 21 22 22
11 7 4 10 5 2 3 2 1 2 5 6 5 2 2 1 8 5 3 2 5 6 6 5 3 4 5 3 4 4 7 8 10 12 14 14 8 7 3 7 10 14 16 19 21
12 8 5 9 7 4 2 4 2 7 4 7 4 5 7 8 5 4 3 8 3 6 8 9 3 5 4 2 3 7 9 10 11 11 14 16 16 11 8 4 5 11 3 10 15
11 8 6 9 6 7 3 6 7 7 5 8 9 5 10 8 8 4 5 4 0 6 6 5 2 3 5 7 6 8 10 8 8 9 11 6 10 9 1 12 10 9 10 10 8
10 4 7 13 11 6 4 8 9 2 9 7 8 7 6 6 5 4 4 7 6 5 2 6 7 2 4 5 7 7 9 7 7 9 3 5 6 6 7 13 9 11 11 12 13
5 2 6 13 10 7 9 11 5 7 10 14 10 10 9 6 3 4 1 2 5 7 4 3 3 2 1 5 5 5 7 8 9 11 8 9 7 4 9 8 8 10 12 16 17
3 5 6 13 9 4 8 6 4 2 8 15 9 5 8 7 8 6 5 3 4 4 5 3 5 3 1 4 6 8 6 6 6 5 8 5 4 9 9 5 8 12 16 18 20
6 7 7 11 6 8 8 4 6 9 7 7 5 7 5 7 3 4 4 5 2 3 4 3 4 8 4 6 5 5 9 8 8 6 8 8 3 9 4 6 12 17 21 23 24
3 5 11 11 8 4 6 6 4 11 5 5 4 5 6 6 4 4 6 3 3 1 1 3 4 7 6 3 6 11 8 10 9 8 8 9 12 5 4 9 18 25 25 25 24
1 3 7 8 5 7 5 8 5 10 8 8 5 3 5 5 3 4 7 7 5 2 0 1 3 7 8 7 6 10 8 7 8 8 13 12 6 5 3 17 20 24 28 28 27
2 4 4 4 3 4 10 10 9 3 6 5 9 8 7 6 1 7 8 7 3 2 0 2 10 11 12 12 6 11 11 11 12 10 13 18 19 19 17 17 23 25 23 26 28
4 3 1 5 4 3 4 7 11 8 4 7 5 7 6 5 6 6 5 7 6 5 5 5 10 11 13 14 15 15 16 17 18 18 20 21 24 21 19 21 23 21 21 25 26
4 2 2 3 1 6 4 5 10 6 9 10 7 8 6 4 3 5 4 4 4 7 7 4 8 8 13 15 15 19 19 19 21 22 24 23 26 20 23 19 18 18 22 25 29
7 6 2 1 3 6 3 5 5 7 3 1 5 7 8 5 2 2 2 1 2 6 7 8 7 6 12 2 9 12 18 19 20 19 20 20 19 20 19 23 24 23 22 27 27

GFSSW_850_spd_270.txt.gz
Wind_Speed
9 10 10 10 10 10 10 10 10 10 10 10 11 9 7 6 4 2 3 2 3 2 6 3 1 3 4 4 5 25 5 4 4 16 12 18 17 17 16 15 10 19 27 29 26
10 10 10 10 9 9 9 9 9 9 8 8 9 8 6 6 8 9 7 3 3 9 5 1 7 2 4 2 18 5 3 8 11 13 10 13 19 14 16 15 16 28 26 25 24
10 11 11 10 9 9 9 9 8 8 8 6 6 6 5 8 7 7 6 4 4 7 2 2 7 6 8 6 20 14 3 9 11 11 14 16 7 22 5 17 18 24 27 25 23
11 11 11 10 9 8 8 9 8 8 7 5 5 5 8 5 2 3 6 5 8 5 4 7 8 7 12 10 9 4 8 13 8 10 10 6 6 14 13 14 19 24 26 26 22
11 11 11 10 9 9 9 10 10 9 6 4 4 5 7 7 2 5 8 9 7 3 5 9 11 4 5 5 7 5 7 10 8 16 14 7 11 11 12 16 19 25 24 24 22
12 11 11 9 8 10 11 12 10 7 4 3 5 7 6 10 3 6 8 8 6 4 11 10 11 11 7 6 6 5 12 11 7 13 8 4 1 6 14 17 21 22 23 22 20
13 11 11 8 8 10 11 8 7 3 1 4 6 7 5 3 5 7 9 8 7 7 11 4 8 14 13 6 3 22 12 8 3 3 4 2 3 6 17 17 19 20 20 19 19
14 12 11 8 8 10 7 6 6 3 2 6 8 7 2 4 5 8 9 8 7 8 8 9 9 13 16 3 11 8 7 4 7 6 9 10 3 16 17 19 18 19 19 17 17
14 12 10 7 8 9 4 5 4 2 5 8 9 4 6 5 7 8 8 9 8 7 8 10 10 16 15 12 2 5 4 10 10 7 11 8 11 15 18 19 18 18 19 18 17
15 12 10 7 7 7 1 2 5 7 7 11 5 9 9 9 9 7 8 6 6 8 10 12 14 12 13 5 1 6 3 7 12 11 7 8 10 14 19 19 21 18 18 18 19
16 12 9 6 5 5 3 5 3 3 10 9 10 5 9 8 5 7 7 7 9 10 11 15 10 11 9 9 8 10 6 4 12 7 4 4 1 15 19 17 19 21 21 20 20
16 13 10 6 4 3 5 5 8 7 9 7 5 3 2 7 9 9 4 7 11 10 11 11 11 12 8 8 6 10 10 9 13 10 7 3 11 11 20 20 21 20 23 21 19
16 13 9 6 4 5 4 13 7 4 9 8 11 10 9 9 10 11 6 12 11 10 13 13 4 7 4 7 10 10 11 13 5 4 12 11 10 15 20 22 22 23 23 21 22
16 12 9 5 4 8 9 5 2 3 6 13 8 6 6 12 6 2 5 7 8 12 13 7 9 5 1 7 8 12 11 10 8 9 11 11 6 11 15 18 13 18 24 27 25
16 12 8 10 4 4 3 2 4 4 6 16 11 8 6 9 11 8 5 10 13 9 5 3 4 3 5 8 6 6 12 9 11 12 13 14 8 7 17 12 18 24 11 17 27
18 12 8 9 13 3 6 5 4 6 6 8 9 9 10 12 5 6 9 7 4 3 7 7 8 3 9 8 3 9 12 14 15 13 11 14 11 12 11 10 12 18 18 3 10
18 13 10 14 10 10 7 8 7 9 9 11 10 13 15 10 9 9 8 8 8 7 8 5 7 6 2 9 11 9 13 10 9 9 11 16 11 5 14 19 21 19 20 21 16
18 12 11 16 10 6 8 10 11 12 13 8 10 10 15 9 6 7 4 6 2 11 3 8 10 7 7 5 8 8 8 6 7 8 10 9 4 10 16 21 22 19 17 16 16
15 8 10 10 14 8 14 13 15 18 0 6 7 12 8 10 3 6 9 7 11 11 8 6 5 7 1 3 6 6 3 14 9 13 9 7 20 17 18 16 17 16 16 14 12
14 9 15 10 13 11 11 16 19 22 7 10 12 10 11 10 8 8 8 8 3 4 9 6 6 9 12 2 9 8 11 7 5 4 6 11 8 4 19 16 13 14 16 13 12
7 6 12 9 13 14 11 18 20 10 3 6 14 11 10 9 11 10 1 8 4 3 6 11 5 0 2 9 9 7 7 6 10 8 10 10 7 17 17 14 11 14 15 13 10
10 7 6 9 12 14 13 21 21 10 9 12 7 10 8 7 6 7 3 6 12 7 8 10 6 10 11 5 4 7 12 12 9 8 9 10 11 17 14 13 8 11 9 8 9
9 12 4 9 9 11 19 24 10 6 7 8 6 5 0 2 4 3 11 12 7 5 7 11 4 7 12 13 10 3 5 9 10 13 15 11 5 14 11 4 15 11 9 7 8
8 4 6 10 16 15 17 15 4 15 11 11 7 3 3 6 5 2 7 6 4 12 9 6 8 8 10 17 14 10 12 10 10 9 12 13 16 16 10 16 21 20 13 8 7
7 4 4 2 8 13 18 15 13 6 8 3 2 6 8 5 7 7 6 13 7 7 2 4 8 10 13 16 16 16 16 16 16 16 16 17 20 20 20 17 20 23 25 21 16
9 6 10 5 6 11 14 10 13 11 5 9 7 10 10 5 6 0 7 4 4 12 5 7 10 9 12 15 16 16 15 14 17 17 18 18 20 17 20 20 21 21 21 22 25
10 5 5 2 7 5 9 8 7 10 10 4 11 5 5 1 4 7 6 5 6 4 7 9 7 9 13 14 15 13 10 10 11 8 11 11 17 23 20 21 18 21 22 23 24

GFSSW_850_spd_276.txt.gz
Wind_Speed
10 10 10 10 10 10 10 10 10 11 11 10 9 9 8 6 6 5 3 1 1 2 6 10 12 11 9 9 9 6 3 1 5 6 6 26 14 18 20 33 22 5 32 38 36
11 10 10 10 9 9 9 9 9 9 10 9 8 8 8 6 6 10 6 3 1 6 7 10 23 16 2 4 5 2 2 4 6 11 9 21 29 20 16 27 18 30 28 41 38
12 11 11 11 9 8 8 9 9 9 9 9 7 6 6 4 4 5 4 3 3 8 4 3 7 25 5 2 2 1 4 4 13 19 23 20 26 26 29 16 36 33 41 40 38
13 12 11 10 9 9 9 10 11 10 10 8 5 5 3 2 2 3 4 5 6 9 7 6 5 16 9 6 5 4 14 4 12 15 9 12 23 24 28 20 36 36 43 42 39
15 13 11 10 8 8 9 11 11 9 8 6 4 2 1 2 4 6 6 9 10 6 6 11 13 11 4 12 12 7 2 13 11 20 21 21 16 14 21 33 35 34 37 39 34
17 15 12 11 9 8 9 10 9 8 6 4 1 2 4 2 1 2 4 10 10 5 9 11 10 10 11 9 9 5 13 10 9 14 16 15 10 17 27 34 31 32 35 37 32
18 16 13 12 9 8 9 8 8 7 4 1 2 3 5 3 4 4 7 5 4 8 14 13 15 12 10 6 10 15 4 4 1 2 5 19 7 12 32 33 28 29 31 31 32
19 18 14 12 10 9 9 8 7 5 2 1 3 3 3 3 4 2 6 6 3 7 11 12 10 11 1 11 5 5 5 2 3 4 1 6 4 15 33 34 29 27 28 29 30
21 18 16 13 11 9 9 7 4 3 1 3 4 1 3 5 11 7 7 6 12 12 15 15 15 5 4 5 3 3 1 4 2 9 3 2 6 16 28 32 30 30 30 27 24
21 19 16 13 12 8 7 3 3 2 1 5 3 4 7 6 13 9 9 10 9 11 9 3 3 2 2 3 5 6 4 4 6 8 7 4 8 19 27 30 31 32 33 30 27
21 20 16 12 10 7 2 6 7 2 4 7 2 9 16 6 8 8 7 5 6 7 3 6 5 6 13 11 12 9 6 7 8 8 6 12 7 19 27 26 27 29 31 33 33
21 20 16 11 8 6 5 7 9 9 9 17 23 25 14 14 7 7 12 5 3 5 5 6 5 13 8 1 6 10 3 5 2 5 7 7 11 17 24 30 35 33 30 34 34
21 20 16 10 6 4 3 8 11 16 5 14 14 14 10 9 6 11 12 7 5 3 5 5 10 9 5 6 8 5 5 4 5 3 4 3 3 16 18 29 28 30 32 31 36
21 19 16 8 2 3 2 9 8 10 4 7 4 7 14 6 3 15 19 4 1 8 4 5 8 5 4 4 5 5 4 3 5 4 3 4 4 8 18 19 21 23 27 25 28
21 19 14 10 6 4 7 7 4 3 2 4 6 8 15 9 7 6 11 5 5 6 5 6 5 6 8 1 2 4 2 4 3 3 4 1 2 7 15 11 5 20 23 18 20
21 19 15 13 11 5 8 4 4 5 5 3 8 8 5 7 1 9 4 6 5 3 2 7 1 3 2 2 3 2 4 7 6 4 3 4 6 5 9 8 10 21 32 34 31
23 17 16 13 10 6 5 5 5 3 5 5 6 5 5 7 5 5 5 3 3 3 4 4 2 1 4 4 8 9 7 4 4 4 6 3 4 5 7 16 23 22 25 32 27
23 15 15 13 9 9 4 5 4 5 6 2 4 5 8 5 5 6 4 2 5 3 4 3 3 1 1 3 3 3 6 5 2 1 5 5 5 4 4 20 20 20 24 24 24
23 14 13 5 10 9 3 3 8 6 2 5 7 5 3 4 5 3 4 4 1 1 6 4 1 3 4 2 4 3 3 5 4 1 4 3 4 15 13 15 23 24 24 21 15
24 16 7 6 10 10 4 6 5 4 8 7 1 6 7 7 5 5 3 2 3 3 5 1 4 3 2 4 4 5 2 4 4 2 4 3 4 7 5 10 16 23 28 28 29
16 10 8 12 12 2 3 6 6 13 14 5 9 10 7 9 9 4 3 5 3 3 14 3 4 5 4 3 5 4 4 5 5 3 4 3 3 2 2 1 7 16 26 32 33
10 4 7 15 3 1 2 4 10 21 29 7 8 10 5 8 6 6 5 3 4 2 4 2 5 1 5 8 2 4 3 5 5 3 4 6 1 6 9 18 23 26 31 28 24
18 7 5 17 2 3 5 4 5 4 7 4 5 1 5 5 7 7 5 6 13 6 2 3 3 3 8 8 7 6 5 4 4 3 1 6 3 4 14 19 22 25 25 25 26
7 4 5 1 2 4 2 5 6 12 16 13 5 8 7 7 5 5 5 5 15 11 8 6 4 6 5 4 3 4 6 4 5 4 3 3 7 1 6 7 17 20 20 22 23
4 2 6 3 6 2 1 2 9 5 8 7 7 6 8 6 6 6 6 6 6 6 5 5 3 3 4 2 4 4 7 7 1 4 5 6 7 2 4 7 14 17 18 21 21
6 6 9 8 12 4 5 4 6 10 3 4 10 13 12 5 7 9 8 4 4 4 5 5 2 4 7 7 7 3 7 8 5 13 16 12 7 2 13 20 20 19 18 18 17
11 7 5 7 7 4 4 8 9 3 23 19 17 15 18 7 26 31 23 15 13 7 3 4 4 3 4 6 6 5 6 9 10 9 8 4 4 4 7 13 10 13 16 19 23

GFSSW_850_spd_282.txt.gz
Wind_Speed
10 11 10 10 11 10 10 9 10 10 10 9 8 6 5 3 2 2 6 6 8 7 7 2 3 2 6 6 6 2 4 3 5 7 5 15 5 16 5 17 6 4 21 27 25
11 11 11 11 10 10 9 9 10 10 10 8 7 4 4 3 1 1 7 8 15 11 10 7 5 6 5 4 4 4 3 2 4 6 8 15 14 11 8 10 6 18 22 25 23
13 12 12 10 10 9 9 9 11 11 10 7 5 3 2 1 4 4 9 8 17 12 11 10 4 6 5 4 6 3 2 5 2 11 22 17 10 3 19 2 9 30 30 27 23
15 14 12 10 10 9 9 9 11 10 8 6 3 1 1 3 3 5 8 8 11 11 6 2 2 4 3 3 4 3 6 4 3 17 18 15 14 8 6 3 15 36 31 28 24
16 15 13 11 11 9 8 9 10 9 7 4 0 3 3 2 3 4 10 8 9 8 4 4 10 4 3 4 2 6 4 7 13 20 22 19 10 8 2 16 30 30 28 27 24
17 16 15 12 11 9 8 8 9 8 6 3 2 5 5 3 2 3 10 9 8 8 4 1 0 2 3 3 4 8 8 11 9 16 17 10 8 8 15 26 31 30 28 27 26
18 18 16 13 11 9 8 8 8 7 4 1 3 6 4 4 2 4 6 9 10 6 5 2 2 1 1 1 7 5 2 3 6 6 3 16 2 2 26 27 31 29 26 26 25
19 18 17 15 11 8 7 8 6 4 2 2 5 6 2 3 3 3 7 8 5 6 9 10 8 6 6 4 3 4 4 2 2 6 9 3 4 7 27 31 26 29 26 25 25
19 18 17 15 12 8 7 6 3 2 1 3 5 3 2 3 5 5 5 7 3 6 8 9 5 3 6 5 3 3 2 2 3 8 5 2 1 10 25 26 24 25 26 25 25
20 19 17 15 11 8 6 4 4 4 4 5 2 1 1 3 4 6 3 4 3 4 2 2 1 3 3 3 5 4 2 2 5 6 4 5 3 11 23 21 23 27 27 26 26
22 19 17 15 10 7 8 3 2 1 1 3 3 4 6 6 5 6 4 3 1 1 3 4 4 4 7 6 5 4 3 3 4 7 4 6 5 12 21 19 18 22 26 29 30
25 20 17 14 9 4 8 6 10 6 5 4 7 11 11 7 1 8 4 4 3 2 2 5 3 3 6 4 6 4 3 5 2 5 4 5 6 13 20 22 25 24 28 30 29
25 21 16 12 8 2 6 5 9 7 1 6 8 8 4 8 5 11 8 5 3 1 3 4 4 1 4 4 5 2 6 4 3 5 3 5 2 9 12 15 20 23 28 31 31
25 22 17 9 1 2 8 4 6 1 5 6 4 6 8 7 3 8 12 5 2 4 5 4 4 2 5 2 3 3 2 5 8 4 3 2 3 3 10 15 18 24 27 30 30
24 21 15 9 5 4 3 3 3 2 2 3 4 4 11 10 3 5 14 11 5 3 4 5 5 3 4 4 5 3 4 4 4 5 4 4 3 5 3 11 15 22 32 31 26
24 22 16 7 7 5 4 1 6 6 5 1 5 5 5 2 3 5 5 7 3 4 2 3 4 1 1 3 4 5 6 8 5 3 2 3 4 3 3 5 7 15 27 27 24
24 19 13 7 3 8 7 6 5 4 4 2 3 4 3 4 1 2 3 3 5 4 2 4 4 4 1 3 4 7 6 3 3 3 5 5 4 1 9 9 13 15 22 25 18
25 13 7 4 6 8 7 5 4 3 5 4 3 3 7 5 3 2 4 2 0 4 4 4 3 2 4 3 5 3 6 6 5 4 3 4 4 6 5 11 13 18 26 29 21
20 8 3 4 9 11 8 3 7 5 4 6 3 3 2 2 5 3 6 6 6 7 5 4 3 3 4 2 3 3 2 4 7 3 3 2 2 3 10 10 12 15 18 21 20
15 7 9 2 9 12 4 5 3 4 4 4 1 1 5 4 5 5 6 3 5 2 3 6 4 2 2 3 8 3 5 3 3 4 2 3 3 4 8 8 8 10 8 7 11
9 4 7 13 7 3 4 5 5 7 5 1 1 4 3 3 6 2 7 1 1 3 6 4 3 3 4 6 1 4 3 7 6 3 5 3 2 5 2 3 7 13 17 15 8
5 3 1 4 4 2 3 5 3 5 5 5 3 7 5 4 3 5 6 2 1 5 4 1 5 4 2 2 2 2 3 4 5 3 1 3 2 3 5 8 15 17 23 24 26
6 2 5 3 3 3 4 4 5 5 7 4 6 7 3 5 3 3 3 2 3 2 7 6 3 4 6 6 4 5 3 4 4 3 2 5 4 3 9 13 16 24 23 22 19
6 3 4 3 4 2 3 5 4 8 9 8 5 5 4 2 2 6 4 5 4 5 9 8 4 5 7 5 3 2 4 3 4 3 6 4 8 4 4 7 15 20 18 17 15
7 2 3 3 3 3 1 2 4 4 4 7 4 8 7 4 3 2 3 4 5 2 5 5 4 4 4 3 2 2 2 5 2 4 2 7 5 6 5 7 11 13 13 12 13
5 4 5 3 8 3 3 3 3 6 2 5 6 9 7 9 9 13 8 3 4 6 4 4 2 3 3 5 4 3 7 5 5 5 7 14 6 5 12 13 11 10 9 11 13
7 5 4 5 6 2 3 5 6 6 5 5 4 3 4 1 15 15 11 12 9 5 3 4 6 3 2 4 4 3 5 2 3 4 8 10 5 9 5 8 7 5 6 10 14